CZ-2C R/B (52794 NORAD) Tracking and Keplerian Element Data

This shows tracking and keplerian element data for the satellite.

Feedback or suggestion? Click here.




ElementValue
Catalog52794
NameCZ-2C R/B
Epoch Orbit597
Epoch Day192.82895878
Epoch Year2022
RAAN69.9651
Inclination50.1748
Eccentricity0.0103827
Argument of Perigee196.6985
Mean Anonmoly163.0539
Mean Motion15.10885023
Decay Rate1.612E-05
L11 52794U 22058K 22192.82895878 .00001612 00000+0 10193-3 0 9991
L22 52794 50.1748 69.9651 0103827 196.6985 163.0539 15.10885023 5976

Live tracking and technical data element details for CZ-2C R/B (NORAD 52794). CZ-2C R/B can be tracked NOW for your location showing map with azimuth and elevation plus other details from your city location.

Track the satellite on the map from your city or location and see movement details for azimuth, elevation, latitude, longitude, range, height, and movement on the map or in text.







IsCatalogInMostPopularTable: catalog: 52794, numindb: 9
Update: records affected: 1



GetName: 52794 CZ-2C R/B

Hit Count: updated at: Sat, 13 Aug 2022 23:41:53 GMT